Bar Harbor, ME

12:44 AM EST on December 06, 2019 (GMT -0500)
Hancock County-Bar Harbor

Weather History for KBHB - July, 2019

Change the Weather History Date:

Wednesday, July 17, 2019

  Actual Average Record
Temperature  
Mean Temperature 70 °F -  
Max Temperature 75 °F 81 °F 91 °F (1953)
Min Temperature 64 °F 59 °F 48 °F (2015)
Cooling Degree Days 4    
Growing Degree Days 20 (Base 50)    
Moisture  
Dew Point 67 °F    
Average Humidity 91    
Maximum Humidity 100    
Minimum Humidity 83    
Precipitation  
Precipitation 0.32 in - - ()
Sea Level Pressure  
Sea Level Pressure 29.86 in    
Wind  
Wind Speed 6 mph (SSW)    
Max Wind Speed 9 mph    
Max Gust Speed -    
Visibility 9 miles    
Events Rain , Thunderstorm    
Averages and records for this station are not official NWS values.
T = Trace of Precipitation, MM = Missing Value Source: NWS Daily Summary

Daily Weather History Graph

Daily Weather History Graph

Search for Another Location

Airport or City:

Astronomy

Jul. 17, 2019 Rise Set
Actual Time 5:04 AM EDT 8:14 PM EDT
Civil Twilight 4:29 AM EDT 8:49 PM EDT
Nautical Twilight 3:43 AM EDT 9:34 PM EDT
Astronomical Twilight 2:48 AM EDT 10:29 PM EDT
Moon 8:59 PM EDT (7/17) 5:33 AM EDT (7/17)
Length of Visible Light 16h 19m
Length of Day
15h 09m
Waxing Gibbous, 99% of the Moon is Illuminated
Jul 17
Waxing Gibbous
Jul 24
Last Quarter
Jul 31
New
Aug 7
First Quarter
Aug 15
Full

Hourly Weather History & Observations

Time (EDT) Temp. Dew Point Humidity Pressure Visibility Wind Dir Wind Speed Gust Speed Precip Events Conditions
12:56 AM 64.9 °F 61.0 °F 87% 29.91 in 10.0 mi SSW 6.9 mph - N/A   Clear
1:56 AM 64.9 °F 61.0 °F 87% 29.90 in 10.0 mi SSW 9.2 mph - N/A   Clear
2:56 AM 64.9 °F 62.1 °F 90% 29.88 in 10.0 mi SSW 9.2 mph - N/A   Mostly Cloudy
3:56 AM 64.9 °F 62.1 °F 90% 29.88 in 10.0 mi SW 8.1 mph - N/A   Clear
4:56 AM 64.9 °F 63.0 °F 93% 29.88 in 10.0 mi SSW 6.9 mph - N/A   Mostly Cloudy
5:56 AM 64.0 °F 63.0 °F 96% 29.87 in 10.0 mi SW 3.5 mph - N/A   Partly Cloudy
6:56 AM 66.9 °F 64.0 °F 90% 29.87 in 8.0 mi SSW 8.1 mph - N/A   Scattered Clouds
7:22 AM 68.0 °F 64.4 °F 88% 29.87 in 10.0 mi SSW 6.9 mph - N/A   Overcast
7:56 AM 69.1 °F 64.9 °F 87% 29.87 in 10.0 mi South 4.6 mph - N/A   Overcast
8:56 AM 71.1 °F 66.0 °F 84% 29.86 in 10.0 mi South 5.8 mph - N/A   Mostly Cloudy
9:56 AM 71.1 °F 66.0 °F 84% 29.86 in 10.0 mi SSW 8.1 mph - N/A   Overcast
10:13 AM 71.6 °F 66.2 °F 83% 29.85 in 8.0 mi SSW 6.9 mph - N/A   Overcast
10:56 AM 69.1 °F 64.9 °F 87% 29.86 in 10.0 mi SSW 4.6 mph - 0.00 in Rain Light Rain
11:56 AM 68.0 °F 66.9 °F 96% 29.86 in 6.0 mi South 4.6 mph - 0.06 in Rain Light Rain
12:11 PM 69.8 °F 68.0 °F 94% 29.85 in 10.0 mi South 3.5 mph - 0.01 in Rain Light Rain
12:28 PM 71.6 °F 69.8 °F 94% 29.84 in 9.0 mi South 4.6 mph - 0.01 in   Overcast
12:47 PM 71.6 °F 69.8 °F 94% 29.84 in 10.0 mi Variable 3.5 mph - 0.01 in   Overcast
12:56 PM 72.0 °F 70.0 °F 93% 29.85 in 10.0 mi Variable 3.5 mph - 0.01 in Rain Light Rain
1:56 PM 73.9 °F 71.1 °F 91% 29.84 in 10.0 mi South 8.1 mph - 0.00 in   Overcast
2:56 PM 75.0 °F 71.1 °F 87% 29.83 in 10.0 mi SSW 6.9 mph - N/A   Clear
3:26 PM 73.4 °F 69.8 °F 88% 29.83 in 10.0 mi SSW 9.2 mph - N/A   Mostly Cloudy
3:56 PM 73.0 °F 70.0 °F 90% 29.82 in 10.0 mi SSW 9.2 mph - N/A   Mostly Cloudy
4:56 PM 75.9 °F 72.0 °F 87% 29.81 in 10.0 mi SSW 9.2 mph - N/A   Partly Cloudy
5:56 PM 73.9 °F 70.0 °F 87% 29.82 in 10.0 mi SSW 9.2 mph - N/A   Partly Cloudy
6:56 PM 73.0 °F 69.1 °F 87% 29.83 in 10.0 mi SW 6.9 mph - N/A   Partly Cloudy
7:56 PM 71.1 °F 68.0 °F 90% 29.84 in 4.0 mi SSW 9.2 mph - N/A   Mostly Cloudy
8:25 PM 73.4 °F 69.8 °F 88% 29.85 in 10.0 mi Calm Calm - N/A Thunderstorm Thunderstorm
8:39 PM 71.6 °F 69.8 °F 94% 29.86 in 10.0 mi Calm Calm - N/A   Overcast
8:56 PM 73.0 °F 70.0 °F 90% 29.86 in 10.0 mi East 4.6 mph - N/A   Overcast
9:28 PM 71.6 °F 69.8 °F 94% 29.87 in 10.0 mi SE 4.6 mph - N/A Thunderstorm Overcast
9:41 PM 71.6 °F 69.8 °F 94% 29.88 in 10.0 mi NNW 8.1 mph - 0.00 in Rain Light Rain
9:56 PM 71.1 °F 69.1 °F 93% 29.88 in 3.0 mi NNW 4.6 mph - 0.05 in Rain Rain
10:17 PM 71.6 °F 69.8 °F 94% 29.87 in 10.0 mi SE 3.5 mph - 0.07 in Rain Light Rain
10:56 PM 69.1 °F 68.0 °F 96% 29.87 in 6.0 mi Calm Calm - 0.16 in   Partly Cloudy
11:19 PM 69.8 °F 69.8 °F 100% 29.87 in 10.0 mi NW 3.5 mph - 0.03 in   Mostly Cloudy
11:37 PM 69.8 °F 68.0 °F 94% 29.88 in 10.0 mi Calm Calm - 0.04 in   Partly Cloudy
11:46 PM 69.8 °F 68.0 °F 94% 29.88 in 1.8 mi Calm Calm - 0.04 in   Clear
11:50 PM 68.0 °F 68.0 °F 100% 29.88 in 0.8 mi Calm Calm - 0.04 in   Clear
11:56 PM 68.0 °F 68.0 °F 100% 29.89 in 0.8 mi Calm Calm - 0.04 in   Clear